N4QD-13 Weather Reports


Display with metric or nautical units.
time (UTC)temp
F
wind
direction
speed
MPH
gust
MPH
rain 1hr
in
rain 24hr
in
rain mn
in
humidity
%
barometer
mb
20260504160141 70 319 1.0 1.0 0.00 0.00 0.00 46 1014.8
20260504151109 66 323 4.0 7.0 0.00 0.00 0.00 46 1015.4
20260504150606 65 79 5.0 8.0 0.00 0.00 0.00 46 1015.6
20260504150103 64 354 2.0 2.0 0.00 0.00 0.00 49 1015.5
20260504141032 63 349 3.0 4.0 0.00 0.00 0.00 49 1015.3
20260504140528 63 327 4.0 6.0 0.00 0.00 0.00 49 1015.3
20260504130453 57 4 3.0 4.0 0.00 0.00 0.00 65 1016.3
20260504110340 44 28 0.0 0.0 0.00 0.00 0.00 89 1017.0
20260504100257 42 9 0.0 0.0 0.00 0.00 0.00 95 1016.3
20260504081651 45 37 0.0 0.0 0.00 0.00 0.00 88 1016.7
20260504081147 45 32 0.0 0.0 0.00 0.00 0.00 88 1016.7
20260504080643 45 31 0.0 0.0 0.00 0.00 0.00 87 1016.6
20260504080140 45 55 0.0 1.0 0.00 0.00 0.00 88 1016.7
20260504070108 46 16 0.0 0.0 0.00 0.00 0.00 86 1016.7
20260504050456 46 351 0.0 0.0 0.00 0.00 0.00 83 1017.3
20260504045953 46 39 0.0 0.0 0.00 0.00 0.00 82 1017.4
20260504045449 45 64 1.0 1.0 0.00 0.00 0.00 83 1017.0
20260504044945 45 88 1.0 2.0 0.00 0.00 0.00 83 1017.2
20260504044443 45 86 1.0 1.0 0.00 0.00 0.00 86 1017.0
20260504043940 45 88 2.0 2.0 0.00 0.00 0.00 86 1016.8
20260504043437 45 59 0.0 1.0 0.00 0.00 0.00 85 1016.7
20260504042935 46 77 1.0 2.0 0.00 0.00 0.00 82 1017.1
20260504042431 46 14 0.0 0.0 0.00 0.00 0.00 80 1016.9
20260504041928 46 352 0.0 0.0 0.00 0.00 0.00 81 1016.7
20260504041424 46 2 0.0 0.0 0.00 0.00 0.00 81 1016.9
20260504040920 46 10 0.0 0.0 0.00 0.00 0.00 81 1016.9
20260504040418 46 11 0.0 0.0 0.00 0.00 0.00 80 1017.0
20260504035914 46 14 0.0 0.0 0.00 0.00 0.00 77 1016.8
20260504035411 46 13 0.0 0.0 0.00 0.00 0.00 76 1016.9
20260504034908 45 14 0.0 0.0 0.00 0.00 0.00 77 1017.3
20260504034405 45 18 0.0 0.0 0.00 0.00 0.00 76 1017.1
20260504033902 45 44 0.0 0.0 0.00 0.00 0.00 77 1017.3
20260504033400 45 45 0.0 0.0 0.00 0.00 0.00 78 1016.9
20260504032856 45 45 0.0 0.0 0.00 0.00 0.00 76 1016.9
20260504032354 45 48 0.0 0.0 0.00 0.00 0.00 78 1017.3
20260504031850 45 45 0.0 0.0 0.00 0.00 0.00 77 1016.9
20260504031347 45 46 0.0 0.0 0.00 0.00 0.00 76 1017.1
20260504030844 45 45 1.0 1.0 0.00 0.00 0.00 75 1017.1
20260504030341 45 33 0.0 0.0 0.00 0.00 0.00 76 1017.1
20260504025837 45 57 1.0 1.0 0.00 0.00 0.00 75 1017.0
20260504025334 45 32 0.0 0.0 0.00 0.00 0.00 75 1016.8
20260504024831 45 27 0.0 1.0 0.00 0.00 0.00 75 1016.9
20260504024327 45 15 0.0 0.0 0.00 0.00 0.00 73 1016.8
20260504023824 45 16 0.0 0.0 0.00 0.00 0.00 72 1016.9
20260504023321 45 3 0.0 0.0 0.00 0.00 0.00 72 1016.9
20260504022817 44 61 1.0 1.0 0.00 0.00 0.00 74 1016.8
20260504022314 45 71 1.0 1.0 0.00 0.00 0.00 79 1016.7
20260504021810 45 21 0.0 0.0 0.00 0.00 0.00 72 1016.7
20260504021308 45 41 0.0 0.0 0.00 0.00 0.00 71 1016.4
20260504020804 45 46 0.0 1.0 0.00 0.00 0.00 72 1016.5
20260504020301 45 17 0.0 0.0 0.00 0.00 0.00 70 1016.5
20260504015757 45 359 0.0 1.0 0.00 0.00 0.00 70 1016.5
20260504015254 45 17 1.0 1.0 0.00 0.00 0.00 71 1016.6
20260504014750 45 31 0.0 0.0 0.00 0.00 0.00 71 1016.4
20260504014246 46 33 0.0 0.0 0.00 0.00 0.00 69 1016.5
20260504013744 46 46 0.0 1.0 0.00 0.00 0.00 68 1016.4
20260504013241 46 41 0.0 0.0 0.00 0.00 0.00 68 1016.3
20260504012737 46 31 1.0 1.0 0.00 0.00 0.00 68 1016.3
20260504012236 47 49 0.0 0.0 0.00 0.00 0.00 67 1015.8
20260504011732 48 61 1.0 1.0 0.00 0.00 0.00 64 1015.9
20260504011229 48 65 1.0 1.0 0.00 0.00 0.00 64 1015.8
20260504010725 48 47 1.0 1.0 0.00 0.00 0.00 64 1015.8
20260504010221 49 38 0.0 0.0 0.00 0.00 0.00 65 1015.6
20260504005718 50 33 0.0 0.0 0.00 0.00 0.00 63 1015.7
20260504005215 50 51 0.0 1.0 0.00 0.00 0.00 60 1015.7
20260504004713 50 48 0.0 0.0 0.00 0.00 0.00 58 1015.7
20260504004209 51 48 0.0 0.0 0.00 0.00 0.00 59 1015.9
20260504003706 52 40 0.0 0.0 0.00 0.00 0.00 59 1015.7
20260504003203 53 40 0.0 0.0 0.00 0.00 0.00 56 1015.6
20260504002700 53 45 0.0 0.0 0.00 0.00 0.00 51 1015.5
20260504002157 54 50 0.0 0.0 0.00 0.00 0.00 48 1015.5
20260504001655 55 49 0.0 0.0 0.00 0.00 0.00 44 1015.4
20260504001151 55 22 0.0 0.0 0.00 0.00 0.00 43 1015.4
20260504000648 56 21 0.0 0.0 0.00 0.00 0.00 42 1015.6
20260504000145 56 22 0.0 0.0 0.00 0.00 0.00 41 1015.5
20260503235643 57 25 0.0 0.0 0.00 0.00 0.00 40 1015.4
20260503235139 58 20 0.0 0.0 0.00 0.00 0.00 39 1015.3
20260503234638 59 226 0.0 1.0 0.00 0.00 0.00 37 1015.3
20260503234136 59 48 0.0 0.0 0.00 0.00 0.00 36 1015.2
20260503233632 60 231 0.0 0.0 0.00 0.00 0.00 35 1015.3
20260503233128 60 136 0.0 1.0 0.00 0.00 0.00 33 1015.4
20260503232625 61 134 1.0 1.0 0.00 0.00 0.00 33 1015.2
20260503232122 62 193 0.0 1.0 0.00 0.00 0.00 32 1015.3
20260503231620 62 170 1.0 1.0 0.00 0.00 0.00 31 1015.3
20260503231116 64 211 1.0 1.0 0.00 0.00 0.00 30 1015.3
20260503230613 65 60 0.0 0.0 0.00 0.00 0.00 27 1015.1
20260503230111 65 92 2.0 2.0 0.00 0.00 0.00 28 1015.1
20260503225608 65 44 0.0 0.0 0.00 0.00 0.00 32 1015.1
20260503225108 65 75 1.0 1.0 0.00 0.00 0.00 29 1015.2
20260503224605 64 51 0.0 0.0 0.00 0.00 0.00 28 1015.1
20260503224103 64 341 1.0 1.0 0.00 0.00 0.00 27 1015.1
20260503223601 65 72 1.0 1.0 0.00 0.00 0.00 29 1015.2
20260503223056 64 46 2.0 2.0 0.00 0.00 0.00 29 1015.0
20260503222554 65 55 0.0 1.0 0.00 0.00 0.00 29 1015.0
20260503222052 65 64 0.0 0.0 0.00 0.00 0.00 30 1015.1
20260503221550 65 72 1.0 2.0 0.00 0.00 0.00 29 1015.0
20260503221047 65 299 2.0 3.0 0.00 0.00 0.00 27 1015.3
20260503220543 65 53 1.0 1.0 0.00 0.00 0.00 28 1015.2
20260503220040 65 358 2.0 4.0 0.00 0.00 0.00 28 1015.2
20260503215537 65 28 2.0 2.0 0.00 0.00 0.00 31 1015.5
20260503215034 65 121 1.0 2.0 0.00 0.00 0.00 31 1015.3
20260503214533 64 357 1.0 1.0 0.00 0.00 0.00 30 1015.3
20260503214029 64 79 2.0 3.0 0.00 0.00 0.00 33 1015.2
20260503213527 64 352 1.0 2.0 0.00 0.00 0.00 31 1015.2
20260503213024 66 161 4.0 6.0 0.00 0.00 0.00 29 1015.4
20260503212521 64 130 1.0 1.0 0.00 0.00 0.00 32 1015.5
20260503212019 65 100 0.0 1.0 0.00 0.00 0.00 30 1015.3
20260503211515 64 100 2.0 2.0 0.00 0.00 0.00 30 1015.3
20260503211011 64 225 4.0 6.0 0.00 0.00 0.00 30 1015.3
20260503210508 63 323 7.0 9.0 0.00 0.00 0.00 31 1015.2
20260503210004 64 65 3.0 4.0 0.00 0.00 0.00 34 1015.5
20260503205500 64 92 3.0 3.0 0.00 0.00 0.00 32 1015.6
20260503204956 65 312 3.0 4.0 0.00 0.00 0.00 31 1015.6
20260503204454 64 327 2.0 2.0 0.00 0.00 0.00 31 1015.5
20260503203950 64 76 1.0 1.0 0.00 0.00 0.00 32 1015.5
20260503203448 63 114 2.0 3.0 0.00 0.00 0.00 30 1015.5
20260503202944 64 353 1.0 1.0 0.00 0.00 0.00 33 1015.8
20260503202443 63 317 2.0 2.0 0.00 0.00 0.00 33 1015.8
20260503201941 64 65 2.0 2.0 0.00 0.00 0.00 32 1015.8
20260503201438 64 189 3.0 4.0 0.00 0.00 0.00 35 1015.8
20260503200935 64 295 1.0 1.0 0.00 0.00 0.00 33 1015.9
20260503200432 62 193 2.0 3.0 0.00 0.00 0.00 32 1016.2
20260503195928 63 183 3.0 3.0 0.00 0.00 0.00 33 1016.3
20260503195426 62 11 1.0 1.0 0.00 0.00 0.00 36 1016.4
20260503194922 62 53 2.0 4.0 0.00 0.00 0.00 36 1016.3
20260503194419 62 80 4.0 4.0 0.00 0.00 0.00 32 1016.6
20260503193914 63 80 1.0 1.0 0.00 0.00 0.00 34 1016.4
20260503193410 62 237 2.0 2.0 0.00 0.00 0.00 37 1016.6
20260503192906 62 337 4.0 7.0 0.00 0.00 0.00 35 1016.6
20260503192402 61 339 1.0 2.0 0.00 0.00 0.00 36 1016.8
20260503191858 61 112 1.0 2.0 0.00 0.00 0.00 35 1016.7
20260503191356 63 34 2.0 3.0 0.00 0.00 0.00 34 1017.0
20260503190852 61 321 3.0 4.0 0.00 0.00 0.00 35 1017.2
20260503190349 60 29 2.0 2.0 0.00 0.00 0.00 37 1017.4
20260503185846 61 96 2.0 3.0 0.00 0.00 0.00 40 1017.3
20260503185343 62 238 2.0 4.0 0.00 0.00 0.00 37 1017.2
20260503184842 62 47 0.0 1.0 0.00 0.00 0.00 35 1017.5
20260503184339 60 152 5.0 7.0 0.00 0.00 0.00 39 1017.5
20260503183834 61 58 1.0 2.0 0.00 0.00 0.00 40 1017.5
20260503183332 60 342 2.0 2.0 0.00 0.00 0.00 38 1017.6
20260503182829 60 52 2.0 2.0 0.00 0.00 0.00 41 1017.6
20260503182329 61 9 1.0 1.0 0.00 0.00 0.00 38 1017.6
20260503181825 60 87 2.0 3.0 0.00 0.00 0.00 37 1017.7
20260503181322 60 78 2.0 2.0 0.00 0.00 0.00 36 1017.6
20260503180818 59 118 2.0 4.0 0.00 0.00 0.00 39 1017.7
20260503180317 60 113 4.0 7.0 0.00 0.00 0.00 41 1017.7
20260503175813 60 47 2.0 3.0 0.00 0.00 0.00 38 1017.7
20260503175311 59 68 2.0 3.0 0.00 0.00 0.00 39 1017.9
20260503174806 58 316 6.0 7.0 0.00 0.00 0.00 40 1017.8
20260503174305 57 290 1.0 1.0 0.00 0.00 0.00 41 1017.8
20260503173800 57 26 4.0 6.0 0.00 0.00 0.00 38 1017.7
20260503173255 58 99 3.0 6.0 0.00 0.00 0.00 40 1017.9
20260503172753 58 97 3.0 4.0 0.00 0.00 0.00 40 1017.8
20260503172250 58 49 3.0 3.0 0.00 0.00 0.00 41 1017.8
20260503171746 59 348 1.0 1.0 0.00 0.00 0.00 40 1017.9
20260503171243 57 221 3.0 4.0 0.00 0.00 0.00 40 1018.3
20260503170740 57 155 3.0 4.0 0.00 0.00 0.00 42 1018.5
20260503170237 56 193 1.0 2.0 0.00 0.00 0.00 42 1018.4